Flag for Brazil Weather past 2 weeks in Rio Grande, Rio Grande do Sul, Brazil

Now
54 °F

Clear.


Feels Like: 54 °F
Forecast: 64 / 78 °F
Wind: No wind

Location: Pelotas Airport


UV Index: 5 (Moderate)

Visibility: 5 mi


Pressure: 30.01 "Hg

Humidity: 100%

Dew point: 54 °F

Location of Rio GrandeLocation

Historic Weather in Rio Grande

°F

Rio Grande temperature yesterday

Maximum temperature yesterday: 70 °F (at 12:00 PM)
Minimum temperature yesterday: 50 °F (at 6:00 AM)
Average temperature yesterday: 60 °F

Past Weeks' High & Low Weather Summary

 TemperatureHumidityPressure
High90 °F (Apr 5, 2:00 PM)100% (Apr 1, 9:00 PM)30.21 "Hg (Apr 1, 9:00 PM)
Low50 °F (Apr 15, 6:00 AM)27% (Apr 8, 4:00 PM)29.47 "Hg (Apr 12, 6:00 AM)
Average71 °F83%30.02 "Hg
* Reported Apr 1 3:00 AM — Apr 16 3:00 AM, Rio Grande, Weather by CustomWeather, © 2014

Note: Actual official high and low records may vary slightly from our data, if they occured in-between our weather recording intervals... More about our weather records

Advertising

Historic Weather Conditions — Data for Previous 24 hours

 ConditionsComfort  
Time TempWeatherWind HumidityBarometerVisibility
3:00 AM
Apr 16
55 °FFog.No wind100%30.01 "Hg3 mi
2:00 AM55 °FFog.No wind94%30.04 "Hg3 mi
1:00 AM55 °FClear.No wind94%30.07 "Hg10 mi
12:00 AM55 °FClear.No wind100%30.07 "Hg10 mi
11:00 PM
Apr 15
57 °FClear.3 mph94%30.07 "Hg10 mi
10:00 PM57 °FClear.2 mph94%30.07 "Hg10 mi
8:00 PM61 °FClear.7 mph83%30.07 "Hg10 mi
7:00 PM61 °FClear.6 mph83%30.07 "Hg10 mi
6:00 PM64 °FClear.6 mph73%30.07 "Hg10 mi
5:00 PM68 °FSunny.9 mph60%30.07 "Hg10 mi
4:00 PM70 °FPassing clouds.12 mph57%30.07 "HgN/A
3:00 PM70 °FScattered clouds.9 mph60%30.09 "HgN/A
2:00 PM70 °FScattered clouds.2 mph60%30.09 "HgN/A
1:00 PM70 °FPartly sunny.No wind57%30.12 "HgN/A
12:00 PM70 °FPartly sunny.3 mph57%30.15 "HgN/A
11:00 AM68 °FPassing clouds.5 mph64%30.15 "HgN/A
10:00 AM63 °FSunny.2 mph77%30.18 "Hg10 mi
9:00 AM57 °FSunny.2 mph88%30.18 "Hg10 mi
8:00 AM54 °FSunny.3 mph94%30.18 "Hg10 mi
7:00 AM50 °FSunny.2 mph100%30.15 "Hg10 mi
6:00 AM50 °FClear.1 mph94%30.15 "Hg5 mi
5:00 AM52 °FClear.2 mph94%30.15 "Hg5 mi
4:00 AM52 °FClear.2 mph100%30.15 "Hg5 mi
Weather by CustomWeather, © 2014

See weather overview